Regional Weather Roundup
Issued by NWS Wakefield, VA

Home | Current Version | Previous Version | Text Only | Print | Product List | Glossary Off
Versions: 1 2 3 4 5 6 7 8 9 10 11 12 13 14 15 16 17 18 19 20 21 22 23 24 25 26 27 28 29 30 31 32 33 34 35 36 37 38 39 40 41 42 43 44 45 46 47 48 49 50

000
ASUS41 KAKQ 311710
RWRAKQ

REGIONAL WEATHER ROUNDUP
NATIONAL WEATHER SERVICE WAKEFIELD VA
1200 PM EST SAT JAN 31 2015

Note: "fair" indicates few or no clouds below 12,000 feet with no
significant weather and/or obstructions to visibility. * = Denotes
station may not report precipitation (e.g., rain,snow,etc.),
thunder or fog.

VAZ042-051-052>054-056-311800-
NORTHERN VIRGINIA

CITY           SKY/WX    TMP DP  RH WIND       PRES   REMARKS
WASH NATIONAL  SUNNY     30   3  31 NW12G18   30.35F WCI  20
DULLES         SUNNY     26   5  40 NW15      30.33F WCI  14
FORT BELVOIR   SUNNY     28   3  33 NW13G23   30.36F WCI  17
QUANTICO       SUNNY     30   4  33 N16G25    30.36F WCI  19
FREDERICKSBRG* SUNNY     32   3  29 NW5       30.34F
STAFFORD*      SUNNY     31   1  27 W3        30.38F
WARRENTON      SUNNY     33  13  43 NW3       30.32F
CULPEPER*      SUNNY     32   1  27 CALM      30.33F
MANASSAS*      SUNNY     28   9  43 N9G17     30.35F
LEESBURG*      SUNNY     28  12  50 NW15G22   30.33F WCI  17
WINCHESTER     SUNNY     28   7  40 NW15      30.30F WCI  17
FRONT ROYAL*   FAIR      30   7  37 NW3       30.28F
LURAY*         FAIR      34   5  29 SE5       30.28F
$$

VAZ048-049-060>072-079>083-311800-
CENTRAL AND SOUTH CENTRAL VIRGINIA

CITY           SKY/WX    TMP DP  RH WIND       PRES   REMARKS
RICHMOND       MOSUNNY   35   4  27 NW8       30.34F
CHESTERFIELD*  FAIR      36   3  25 W12       30.35F
PETERSBURG*    SUNNY     37   2  22 W7        30.36F
HANOVER        SUNNY     32   5  32 W9        30.35F
TAPPAHANNOCK*  SUNNY     32  -5  20 W12       30.35F WCI  23
QUINTON*       FAIR      32   4  30 NW12      30.35F WCI  23
CHARLOTTSVILLE SUNNY     35   1  23 VRB3      30.29F
GORDONSVILLE*  FAIR      34   2  26 CALM      30.30F
ORANGE*        SUNNY     34   7  32 S3        30.33F
LOUISA*        SUNNY     34   7  32 CALM      30.30F
BUMPASS*       FAIR      31   4  32 CALM      30.33F
FARMVILLE*     SUNNY     40   5  23 SW7       30.32F
CREWE*         FAIR      36  -1  20 SW5       30.33F
FORT PICKETT*  FAIR      36   3  25 W7        30.34F
CHASE CITY*    FAIR      38   8  28 W6        30.34F
CLARKSVILLE*   FAIR      36   9  32 NW6       30.35S
SOUTH HILL*    SUNNY     36   6  28 NW5       30.41F
LAWRENCEVILLE* FAIR      35   6  29 NW3       30.35F
EMPORIA*       SUNNY     36   7  30 W8        30.37F
$$

VAZ088>098-311800-
SOUTHEAST VIRGINIA

CITY           SKY/WX    TMP DP  RH WIND       PRES   REMARKS
NORFOLK        SUNNY     32   6  33 VRB7      30.33F
VIRGINIA BEACH MOSUNNY   35   2  24 NW18G29   30.32F WCI  24
NORFOLK NAVAL  MOSUNNY   34   7  32 W14G22    30.35F WCI  25
WEST POINT*    SUNNY     35  -1  21 W12G17    30.36F
SALUDA*        FAIR      30   3  32 NW14G21   30.34F WCI  19
NEWPORT NEWS   SUNNY     35   8  32 W14       30.34F
LANGLEY AFB    SUNNY     33   7  33 W12       30.33F WCI  24
FORT EUSTIS    SUNNY     33  10  37 NW15G23   30.33F WCI  23
WILLIAMSBURG*    N/A     37   9  30 NW7G17    30.35F
HR EXEC AP*    FAIR      34   9  35 NW8       30.37F
FRANKLIN*      SUNNY     34   6  31 W8        30.36F
WAKEFIELD      SUNNY     35   4  27 NW8       30.35F
$$

VAZ020-022-025-037-045-311800-
WEST CENTRAL AND SOUTHWEST VIRGINIA

CITY           SKY/WX    TMP DP  RH WIND       PRES   REMARKS
STAUNTON*      SUNNY     31   0  26 CALM      30.28F
WAYNESBORO*    FAIR      33   0  24 SW3       30.25F
HOT SPRINGS VA SUNNY     25   2  38 W14       30.11F WCI  13
LYNCHBURG      SUNNY     37   3  24 VRB5      30.31F
DANVILLE       MOSUNNY   38   9  30 SW9       30.36F
SOUTH BOSTON*  FAIR      38  -1  19 W13       30.35F
MARTINSVILLE   SUNNY     41   5  22 S5        30.36F
ROANOKE        MOSUNNY   37   6  27 S9        30.31F
BLACKSBURG     SUNNY     31   6  35 W13G18    30.30F WCI  22
DUBLIN*        SUNNY     37   3  23 W8        30.29F
MARION*        SUNNY     34  11  39 SW9       30.31F
HILLSVILLE*    SUNNY     32   3  29 W13G21    30.26F WCI  23
RICHLANDS*     FAIR      29  10  45 W7        30.31F
WISE*          SUNNY     36   9  32 CALM      30.31F
ABINGDON*      SUNNY     35  11  37 W6        30.34F
$$

MDZ021>025-VAZ099-100-311800-
SOUTHERN MARYLAND AND THE DELMARVA PENINSULA

CITY           SKY/WX    TMP DP  RH WIND       PRES   REMARKS
PATUXENT RIVER SUNNY     29   2  31 NW20      30.31F WCI  16
BAY BRIDGE APT   N/A     28   5  37 NW10G18   30.32F WCI  19
LEONARDTOWN    SUNNY     30   0  27 W14       30.33F WCI  20
DOVER          SUNNY     25   3  39 W18G24    30.27F WCI  11
GEORGETOWN     SUNNY     27   3  35 NW13G22   30.27F WCI  16
EASTON         SUNNY     28   9  43 NW21G28   30.33F WCI  15
CAMBRIDGE      SUNNY     30   9  40 NW13G18   30.30F WCI  20
SALISBURY      SUNNY     31   7  36 NW17G24   30.27F WCI  19
OCEAN CITY     SUNNY     29   4  34 N22G30    30.25F WCI  15
WALLOPS ISLAND SUNNY     30   7  37 N17G26    30.28F WCI  18
ACCOMACK*      SUNNY     30  10  43 NW13G28   30.30F WCI  20
$$

NCZ012>017-030>032-311800-
NORTH CENTRAL AND EASTERN NORTH CAROLINA

CITY           SKY/WX    TMP DP  RH WIND       PRES   REMARKS
ROANOKE RAPIDS FAIR      37   9  30 NW5       30.36F
RALEIGH        PTSUNNY   40   3  21 VRB7      30.36F
ELIZABETH CITY SUNNY     35   8  32 N15       30.35F
AHOSKIE*       SUNNY     36   6  28 N9        30.36F
EDENTON*       SUNNY     37   9  31 N17       30.35F
CURRITUCK*     SUNNY     34   1  24 NW13G20   30.35F WCI  25
KILL DEVIL HLS SUNNY     33   5  31 NW8G25    30.32F
MANTEO         SUNNY     34   9  35 NW14G24   30.34F WCI  24
CAPE HATTERAS  SUNNY     36  14  40 N10G20    30.33S
TARBORO*       FAIR      40   8  27 N6        30.37F
GOLDSBORO      SUNNY     28  14  54 W5        30.31R
WASHINGTON     SUNNY     38   8  28 N6        30.36F
GREENVILLE     SUNNY     39   9  28 NW7       30.37F
NEW BERN       SUNNY     42   9  25 NW12      30.37F
WILMINGTON     SUNNY     43   9  24 N9        30.37F
$$

VAZ048-311800-
ELSEWHERE

CITY           SKY/WX    TMP DP  RH WIND       PRES   REMARKS
HARRISBURG PA  MOSUNNY   21   7  54 NW20      30.28F WCI   6
BALTIMORE      SUNNY     26   4  38 NW13G22   30.31F WCI  15
ANNAPOLIS      SUNNY     26   8  46 NW14      30.31F WCI  14
ANDREWS AFB    SUNNY     26   3  36 NW14      30.31F WCI  15
PHILADELPHIA   SUNNY     24   0  35 NW21G32   30.25F WCI   9
HENDERSON NC   MOSUNNY   37   1  21 CALM      30.35F
GREENSBORO     MOSUNNY   41   3  20 W10       30.34F
ROCKY MOUNT    SUNNY     40   6  24 NW8       30.37F
$$

VAZ100-311800-
MARINE

STATION/POSITION TIME  TEMP    WIND        PRES    WAVE   SWELL
                       AIR SEA DIR/SP/G            HT/PER HT/PER
                 (UTC) (F)     (DEG/KT/KT) (MB)    (FT/S) (FT/S)
BRANDYWINE LGT   1700   21 35  340/ 21/ 29 1024.3F
CAPE MAY NJ      1700   23                 1023.5F
LEWES DE         1700   24     320/ 22/ 27 1024.3F
15NM E FENWICK I 1700   24 39              1022.9F   8/ 6
OCEAN-CITY-INLET 1700   26 35  350/ 19/ 23 1024.0F
WACHAPREAGUE VA  1700   30 33  290/  4/ 18 1026.0F
THOMAS POINT MD  1700   25 34  310/ 14/ 16 1027.3F
GOOSES REEF MD   1700   26     VRB 16/ 19  1025.9F
COVE POINT MD    1700   24     350/ 19/ 22 1026.4F
SOLOMONS ISLAND  1700      36                N/A
BISHOPS HEAD MD  1700   26 31  310/ 18/ 21 1025.8F
PINEY POINT MD   1700          320/ 18/ 21   N/A
POTOMAC MD       1700   27     310/ 17/ 23 1025.8F
CAMBRIDGE MD     1700   25 33  300/ 15/ 21 1026.2F
LEWISETTA VA     1700   27 34  300/ 13/ 17 1026.9F
RAPPAHANNOCK LGT 1700          320/ 20/ 25 1027.1F
STINGRAY PT      1700   30     310/ 17/ 23 1027.1F
YORK RVR RNG VA  1700   30     300/ 15/ 18 1026.5F
YORKTOWN VA      1700   29 38  320/  9/ 11 1027.3F
JAMESTOWN VA     1700   28     310/ 12/ 16   N/A
DOMINION TERM VA 1700   29     310/ 12/ 15 1027.8F
KIPTOPEKE VA     1700      39  340/ 20/ 26   N/A
CHES BAY BRIDGE  1700   30 38  300/ 17/ 21 1026.9F
CAPE HENRY VA    1700   29     320/ 22/ 27 1025.7F
CHESAPEAKE LGHT  1600   27     320/ 24/ 28 1027.5R
WILLOUBY STN VA  1700   29     290/ 18/ 20 1027.6F
S CRANEY ISL VA  1700          300/  9/ 13 1027.4F
CAPE HENRY BUOY  1600      42                N/A     5/ 4
1ST LANDING BUOY 1700   31     330/ 21/ 27 1026.6F
CAPE CHARLES BUO 1700      39                N/A     4/ 3   2/ 8
OFFSHORE WE BUOY 1700      43                N/A     7/ 7   3/25
64NM E OF VA BCH 1700   30 48  320/ 23/ 29 1024.8S  10/ 8   5/17
DUCK PIER NC     1700   30 40  330/ 22/ 25 1026.3S
44100 DUCK FRF   1700      43                N/A     7/ 8   2/11
44056 DUCK FRF   1700      41                N/A     5/ 7
OREGON INLET NC  1700   32 40  320/ 17/ 23 1027.1F
HATTERAS NC      1700   33 40  350/ 26/ 29 1027.0F


USA.gov is the U.S. government's official web portal to all federal, state and local government web resources and services.